STARLINK-2377, 47797

Orbit data source: Space-Track

STARLINK-2377, 47797 is a payload satellite owned by SpaceX/Seattle (US) in LEO that was launched on Thu, 11 Mar 2021 UTC via an FALCON 9 launch vehicle from the Air Force Eastern Test Range (AFETR). Payload-class satellites include a variety of spacecraft equipped with specific instruments for various scientific and technological missions. These include communications satellites like Starlink; space stations such as the ISS; scientific satellites like the Hubble; Earth observation satellites from companies like Planet Labs, Umbra, and HawkEye 360; GPS; miniature CubeSats for education and research; and military/defense satellites.

Loading next visibility...
Identifier
47797, 2021-018L
Orbit
LEO
Country
Flag of USUS
Related business
Manufacturer
SpaceX/Seattle
Mission
Operational Commercial Communications
Bus & Motor
STARLINK, Unknown motor
Mass
260 kg wet, ~248 kg dry
Launch date (UTC)
2021-03-11 (5 years ago)
Launch vehicle
FALCON 9
Launch site
Air Force Eastern Test Range (AFETR)
Object type
Payload
Rocket body
Debris
Shape & HBR
Box + 1 Pan, 10.1 m
Radar Cross Section
13.562 m², Large (>1 m²)

Expand to show TLE details & history
Last TLE update: 17 hours ago

TLE from 17 hours ago
0 STARLINK-2377
1 47797U 21018L   25292.04417324  .00003588  00000-0  25960-3 0  9990
2 47797  53.0546 172.4919 0001362  88.9723 271.1422 15.06401878255170
Epoch: 2025-10-19T01:03Z
TLE epoch observation values (Epoch: 2025-10-19T01:03:36.567Z)
Latitude
-0.00005°
Longitude
128.82301°
Altitude
548.066 km
Speed
7.589 km/s
True Right ascension
11h 29m 58s
True Declination
0° 00' 00"
Sunlit
Object was in daylight at epoch
Visualization orbit readout
Latitude
Unknown
Longitude
Unknown
Altitude
Unknown
Speed
Unknown
Apparent Right ascension
Unknown
Apparent Declination
Unknown
Sunlit
N/A
Visualization observer readout
Local Sidereal Time
13:21:52
Azimuth
Unknown
Elevation
Unknown
Doppler factor
Unknown
Orbital elements
Apogee altitude
548.42 km
Perigee altitude
546.533 km
Semi-major axis
6,925.614 km
Eccentricity
0.00014
Inclination
53.0546°
RAAN
172.4919°
Arg. of periapsis
88.9723°
True anomaly
271.1266°
Mean anomaly
271.1422°
Eccentric anomaly
271.1344°
Mean motion
3.76579 °/min
Orbital period
95.6 mins
BSTAR
0.0002596
Loading maneuver chart data...
Computing Atmospheric mass density...

Documentation

Showing up to 5 results
|